CW0529 Weather Reports


Display with metric or nautical units.
time (UTC)temp
F
wind
direction
speed
MPH
gust
MPH
rain 1hr
in
rain 24hr
in
rain mn
in
humidity
%
barometer
mb
20260510033133 56 179 0.0 0.0 0.00 0.00 0.00 90 1036.0
20260510032629 56 178 0.0 0.0 0.00 0.00 0.00 90 1035.8
20260510032124 57 177 0.0 0.0 0.00 0.00 0.00 89 1035.8
20260510031620 57 177 0.0 0.0 0.00 0.00 0.00 88 1035.7
20260510031117 57 177 0.0 0.0 0.00 0.00 0.00 88 1035.7
20260510030611 57 176 0.0 0.0 0.00 0.00 0.00 87 1035.7
20260510030109 58 176 0.0 0.0 0.00 0.00 0.00 86 1035.6
20260510025606 58 176 0.0 0.0 0.00 0.00 0.00 85 1035.5
20260510025103 59 173 0.0 1.0 0.00 0.00 0.00 85 1035.5
20260510024600 59 176 0.0 0.0 0.00 0.00 0.00 84 1035.8
20260510024056 59 178 0.0 0.0 0.00 0.00 0.00 84 1035.4
20260510023553 59 176 0.0 0.0 0.00 0.00 0.00 84 1035.6
20260510023050 59 179 0.0 0.0 0.00 0.00 0.00 84 1035.3
20260510022549 59 178 0.0 0.0 0.00 0.00 0.00 84 1035.2
20260510022044 59 180 0.0 0.0 0.00 0.00 0.00 83 1035.2
20260510021540 59 180 0.0 0.0 0.00 0.00 0.00 82 1035.2
20260510021038 60 179 0.0 0.0 0.00 0.00 0.00 81 1035.1
20260510020532 61 174 0.0 0.0 0.00 0.00 0.00 79 1035.1
20260510020028 62 179 0.0 0.0 0.00 0.00 0.00 77 1034.9
20260510015524 63 181 0.0 0.0 0.00 0.00 0.00 75 1034.8
20260510015020 64 187 0.0 0.0 0.00 0.00 0.00 73 1034.7
20260510014517 64 187 0.0 0.0 0.00 0.00 0.00 72 1034.7
20260510014014 64 187 0.0 0.0 0.00 0.00 0.00 73 1034.6
20260510013508 65 187 0.0 0.0 0.00 0.00 0.00 71 1034.7
20260510013005 66 187 0.0 0.0 0.00 0.00 0.00 70 1034.6
20260510012459 66 187 0.0 0.0 0.00 0.00 0.00 70 1034.4
20260510011954 66 186 0.0 0.0 0.00 0.00 0.00 70 1034.5
20260510011449 67 186 0.0 0.0 0.00 0.00 0.00 68 1034.5
20260510010945 68 186 0.0 0.0 0.00 0.00 0.00 67 1034.5
20260510010443 68 186 0.0 0.0 0.00 0.00 0.00 67 1034.2
20260510005940 68 185 0.0 0.0 0.00 0.00 0.00 68 1034.4
20260510005436 68 184 0.0 0.0 0.00 0.00 0.00 67 1034.2
20260510004933 68 184 0.0 0.0 0.00 0.00 0.00 66 1034.2
20260510004430 69 184 0.0 0.0 0.00 0.00 0.00 64 1033.9
20260510003928 70 184 0.0 0.0 0.00 0.00 0.00 63 1034.1
20260510003425 71 184 0.0 0.0 0.00 0.00 0.00 60 1034.0
20260510002924 72 182 0.0 0.0 0.00 0.00 0.00 59 1034.1
20260510002421 72 188 0.0 0.0 0.00 0.00 0.00 59 1033.8
20260510001918 73 188 0.0 0.0 0.00 0.00 0.00 56 1034.0
20260510001416 73 188 0.0 0.0 0.00 0.00 0.00 56 1034.0
20260510000913 74 186 0.0 0.0 0.00 0.00 0.00 54 1033.9
20260510000411 75 182 0.0 0.0 0.00 0.00 0.00 52 1033.7
20260509235905 76 182 0.0 0.0 0.00 0.00 0.00 50 1033.8
20260509235402 76 182 1.0 2.0 0.00 0.00 0.00 49 1033.8
20260509234858 77 182 0.0 0.0 0.00 0.00 0.00 48 1033.8
20260509234356 77 187 0.0 1.0 0.00 0.00 0.00 48 1033.8
20260509233854 78 195 0.0 1.0 0.00 0.00 0.00 48 1033.7
20260509233351 78 183 0.0 0.0 0.00 0.00 0.00 46 1033.7
20260509232846 79 190 0.0 0.0 0.00 0.00 0.00 45 1033.7
20260509232345 80 199 0.0 0.0 0.00 0.00 0.00 48 1034.0
20260509231840 80 190 0.0 1.0 0.00 0.00 0.00 44 1033.7
20260509231337 79 189 0.0 0.0 0.00 0.00 0.00 44 1033.7
20260509230835 79 196 1.0 2.0 0.00 0.00 0.00 45 1033.7
20260509230332 79 358 1.0 2.0 0.00 0.00 0.00 47 1033.5
20260509225827 79 191 1.0 2.0 0.00 0.00 0.00 46 1033.6
20260509225324 78 206 0.0 0.0 0.00 0.00 0.00 50 1033.6
20260509224820 78 178 0.0 0.0 0.00 0.00 0.00 50 1033.4
20260509224316 79 190 0.0 0.0 0.00 0.00 0.00 49 1033.5
20260509223813 80 166 0.0 0.0 0.00 0.00 0.00 47 1033.2
20260509223310 79 216 0.0 0.0 0.00 0.00 0.00 49 1033.3
20260509222806 79 194 0.0 0.0 0.00 0.00 0.00 51 1033.4
20260509222256 79 192 0.0 0.0 0.00 0.00 0.00 49 1033.7
20260509221752 79 217 0.0 0.0 0.00 0.00 0.00 50 1033.4
20260509221249 76 191 0.0 0.0 0.00 0.00 0.00 56 1033.6
20260509220745 76 229 0.0 0.0 0.00 0.00 0.00 55 1033.4
20260509220242 76 188 3.0 3.0 0.00 0.00 0.00 53 1033.4
20260509215736 76 171 3.0 3.0 0.00 0.00 0.00 54 1033.4
20260509215233 78 184 0.0 2.0 0.00 0.00 0.00 52 1033.2
20260509214731 78 178 0.0 2.0 0.00 0.00 0.00 53 1033.4
20260509214227 78 78 3.0 3.0 0.00 0.00 0.00 54 1033.3
20260509213725 78 343 0.0 5.0 0.00 0.00 0.00 54 1033.2
20260509213220 78 189 0.0 0.0 0.00 0.00 0.00 57 1033.1
20260509212718 78 138 2.0 3.0 0.00 0.00 0.00 54 1033.1
20260509212214 80 160 0.0 3.0 0.00 0.00 0.00 53 1033.2
20260509211710 79 144 2.0 5.0 0.00 0.00 0.00 56 1033.2
20260509211208 77 194 0.0 0.0 0.00 0.00 0.00 55 1033.2
20260509210704 76 164 1.0 1.0 0.00 0.00 0.00 57 1033.1
20260509210202 77 61 2.0 3.0 0.00 0.00 0.00 55 1033.0
20260509205701 78 165 3.0 3.0 0.00 0.00 0.00 54 1033.2
20260509205201 76 173 0.0 3.0 0.00 0.00 0.00 57 1033.2
20260509204657 78 175 0.0 2.0 0.00 0.00 0.00 55 1033.2
20260509204154 79 168 0.0 2.0 0.00 0.00 0.00 55 1033.1
20260509203650 77 193 0.0 3.0 0.00 0.00 0.00 55 1033.1
20260509203148 77 199 1.0 2.0 0.00 0.00 0.00 57 1033.3
20260509202643 77 219 2.0 5.0 0.00 0.00 0.00 54 1033.2
20260509202138 78 211 1.0 3.0 0.00 0.00 0.00 55 1033.3
20260509201634 79 189 1.0 2.0 0.00 0.00 0.00 54 1033.2
20260509201132 78 208 0.0 2.0 0.00 0.00 0.00 56 1033.4
20260509200627 78 158 5.0 7.0 0.00 0.00 0.00 56 1033.6
20260509200123 77 227 1.0 2.0 0.00 0.00 0.00 60 1033.4
20260509195619 78 163 3.0 7.0 0.00 0.00 0.00 56 1033.5
20260509195113 78 213 2.0 2.0 0.00 0.00 0.00 55 1033.8
20260509194613 78 174 1.0 5.0 0.00 0.00 0.00 58 1033.8
20260509194111 77 197 4.0 7.0 0.00 0.00 0.00 58 1034.0
20260509193606 77 185 4.0 8.0 0.00 0.00 0.00 57 1034.0
20260509193103 77 179 2.0 3.0 0.00 0.00 0.00 59 1034.0
20260509192559 77 179 2.0 3.0 0.00 0.00 0.00 60 1034.0
20260509192054 76 192 0.0 1.0 0.00 0.00 0.00 60 1034.0
20260509191549 76 161 0.0 3.0 0.00 0.00 0.00 63 1034.0
20260509191045 75 190 1.0 5.0 0.00 0.00 0.00 62 1034.1
20260509190542 75 196 1.0 6.0 0.00 0.00 0.00 63 1034.0
20260509190040 76 172 1.0 3.0 0.00 0.00 0.00 59 1033.9
20260509185537 76 239 3.0 6.0 0.00 0.00 0.00 63 1034.0
20260509185033 74 219 3.0 3.0 0.00 0.00 0.00 62 1033.8
20260509184532 74 190 2.0 6.0 0.00 0.00 0.00 63 1034.0
20260509184027 75 219 2.0 2.0 0.00 0.00 0.00 60 1034.2
20260509183523 74 181 1.0 3.0 0.00 0.00 0.00 63 1034.2
20260509183019 75 153 2.0 5.0 0.00 0.00 0.00 62 1033.9
20260509182515 75 193 2.0 3.0 0.00 0.00 0.00 62 1033.9
20260509182013 76 12 4.0 8.0 0.00 0.00 0.00 59 1033.9
20260509181511 75 194 2.0 3.0 0.00 0.00 0.00 62 1033.8
20260509181008 75 194 1.0 2.0 0.00 0.00 0.00 67 1033.4
20260509180503 74 317 4.0 6.0 0.00 0.00 0.00 64 1033.6
20260509180001 73 174 1.0 2.0 0.00 0.00 0.00 64 1033.9
20260509175456 74 200 3.0 5.0 0.00 0.00 0.00 63 1033.7
20260509174953 75 207 2.0 3.0 0.00 0.00 0.00 64 1033.8
20260509174450 74 186 0.0 1.0 0.00 0.00 0.00 64 1033.7
20260509173944 74 217 1.0 3.0 0.00 0.00 0.00 67 1033.8
20260509173439 73 230 2.0 5.0 0.00 0.00 0.00 64 1033.8
20260509172936 73 181 1.0 5.0 0.00 0.00 0.00 65 1033.8
20260509172433 73 185 0.0 3.0 0.00 0.00 0.00 68 1034.1
20260509171928 71 70 2.0 2.0 0.00 0.00 0.00 72 1033.9
20260509171424 71 259 4.0 5.0 0.00 0.00 0.00 69 1034.0
20260509170921 71 185 0.0 3.0 0.00 0.00 0.00 68 1034.1
20260509170416 71 169 0.0 1.0 0.00 0.00 0.00 70 1034.1
20260509165913 71 212 1.0 2.0 0.00 0.00 0.00 68 1034.2
20260509165407 72 179 1.0 1.0 0.00 0.00 0.00 68 1034.1
20260509164903 71 167 0.0 0.0 0.00 0.00 0.00 73 1034.1
20260509164359 70 219 1.0 3.0 0.00 0.00 0.00 69 1034.3
20260509163855 72 254 3.0 7.0 0.00 0.00 0.00 68 1034.2
20260509163352 72 203 4.0 6.0 0.00 0.00 0.00 68 1034.2
20260509162851 72 205 2.0 3.0 0.00 0.00 0.00 69 1034.0
20260509162350 71 158 1.0 2.0 0.00 0.00 0.00 71 1034.0
20260509161846 70 191 1.0 2.0 0.00 0.00 0.00 71 1034.1
20260509161342 69 190 1.0 7.0 0.00 0.00 0.00 74 1034.4
20260509160838 71 225 3.0 5.0 0.00 0.00 0.00 71 1034.3
20260509160334 71 200 2.0 7.0 0.00 0.00 0.00 72 1034.4
20260509155829 71 182 0.0 2.0 0.00 0.00 0.00 72 1034.2
20260509155326 70 177 0.0 2.0 0.00 0.00 0.00 72 1034.1
20260509154823 69 178 1.0 5.0 0.00 0.00 0.00 75 1034.3
20260509154319 69 215 1.0 5.0 0.00 0.00 0.00 75 1034.0
20260509153816 69 191 1.0 5.0 0.00 0.00 0.00 76 1034.1
20260509153313 68 207 2.0 3.0 0.00 0.00 0.00 78 1034.0
20260509152810 67 4 2.0 3.0 0.00 0.00 0.00 78 1034.0
20260509152306 67 257 4.0 6.0 0.00 0.00 0.00 77 1034.0
20260509151803 68 189 0.0 2.0 0.00 0.00 0.00 77 1034.0
20260509151259 66 228 0.0 6.0 0.00 0.00 0.00 79 1034.1
20260509150758 67 194 3.0 6.0 0.00 0.00 0.00 78 1034.0
20260509150255 67 169 4.0 7.0 0.00 0.00 0.00 79 1033.7
20260509145752 67 242 5.0 7.0 0.00 0.00 0.00 78 1033.9
20260509145251 66 280 3.0 5.0 0.00 0.00 0.00 81 1033.9
20260509144748 65 190 0.0 3.0 0.00 0.00 0.00 82 1033.9
20260509144245 65 210 0.0 2.0 0.00 0.00 0.00 83 1034.1
20260509143742 64 201 1.0 5.0 0.00 0.00 0.00 83 1034.0
20260509143240 64 179 2.0 5.0 0.00 0.00 0.00 83 1033.8
20260509142736 63 162 3.0 3.0 0.00 0.00 0.00 84 1033.8
20260509142232 63 222 1.0 3.0 0.00 0.00 0.00 84 1033.9
20260509141728 63 187 1.0 2.0 0.00 0.00 0.00 85 1033.8
20260509141226 63 162 2.0 2.0 0.00 0.00 0.00 85 1033.7
20260509140722 63 204 1.0 2.0 0.00 0.00 0.00 84 1033.9
20260509140222 63 176 3.0 3.0 0.00 0.00 0.00 84 1033.8
20260509135716 63 190 0.0 5.0 0.00 0.00 0.00 83 1033.9
20260509135214 63 169 4.0 5.0 0.00 0.00 0.00 83 1033.8
20260509134711 63 141 2.0 3.0 0.00 0.00 0.00 84 1033.4
20260509134208 62 163 1.0 5.0 0.00 0.00 0.00 85 1033.6
20260509133705 61 167 2.0 3.0 0.00 0.00 0.00 87 1033.7
20260509133202 60 155 2.0 3.0 0.00 0.00 0.00 88 1033.6
20260509132701 60 176 1.0 1.0 0.00 0.00 0.00 89 1033.6
20260509132159 60 198 1.0 3.0 0.00 0.00 0.00 89 1033.4
20260509131655 59 207 1.0 2.0 0.00 0.00 0.00 89 1033.7
20260509131152 59 180 1.0 3.0 0.00 0.00 0.00 90 1033.5
20260509130647 58 200 0.0 2.0 0.00 0.00 0.00 90 1033.7
20260509130144 58 190 0.0 2.0 0.00 0.00 0.00 90 1033.7
20260509125640 58 188 0.0 2.0 0.00 0.00 0.00 90 1033.7
20260509125137 58 198 1.0 3.0 0.00 0.00 0.00 90 1034.0
20260509124634 58 200 1.0 1.0 0.00 0.00 0.00 90 1033.8
20260509124131 57 116 0.0 2.0 0.00 0.00 0.00 91 1033.9
20260509123629 57 184 1.0 2.0 0.00 0.00 0.00 91 1033.7
20260509123125 57 173 0.0 2.0 0.00 0.00 0.00 91 1033.6
20260509122621 57 181 0.0 3.0 0.00 0.00 0.00 91 1033.5
20260509122119 57 182 0.0 3.0 0.00 0.00 0.00 91 1033.6
20260509121615 57 176 1.0 2.0 0.00 0.00 0.00 91 1033.4
20260509121113 56 181 1.0 1.0 0.00 0.00 0.00 92 1033.4
20260509120611 56 178 0.0 1.0 0.00 0.00 0.00 92 1033.2
20260509120109 56 182 0.0 1.0 0.00 0.00 0.00 92 1033.0
20260509115606 56 194 0.0 2.0 0.00 0.00 0.00 93 1032.9
20260509115103 56 163 2.0 3.0 0.00 0.00 0.00 93 1032.9
20260509114601 56 179 0.0 1.0 0.00 0.00 0.00 94 1032.8
20260509114100 55 189 0.0 0.0 0.00 0.00 0.00 94 1032.7
20260509113558 55 180 1.0 1.0 0.00 0.00 0.00 94 1032.9
20260509113055 55 178 0.0 0.0 0.00 0.00 0.00 94 1032.8
20260509112551 54 183 0.0 0.0 0.00 0.00 0.00 94 1032.8
20260509112048 54 183 0.0 1.0 0.00 0.00 0.00 94 1032.6
20260509111546 54 184 0.0 0.0 0.00 0.00 0.00 94 1032.8
20260509111043 54 181 0.0 0.0 0.00 0.00 0.00 94 1032.8
20260509110540 54 182 0.0 0.0 0.00 0.00 0.00 94 1032.7
20260509110037 53 180 0.0 2.0 0.00 0.00 0.00 94 1032.7
20260509105535 53 185 0.0 0.0 0.00 0.00 0.00 94 1032.7
20260509105032 53 183 0.0 0.0 0.00 0.00 0.00 94 1032.5
20260509104529 54 185 0.0 1.0 0.00 0.00 0.00 94 1032.4
20260509104026 53 187 1.0 1.0 0.00 0.00 0.00 94 1032.7
20260509103523 53 194 0.0 0.0 0.00 0.00 0.00 94 1032.6
20260509103022 53 182 0.0 0.0 0.00 0.00 0.00 94 1032.5
20260509102518 53 184 0.0 0.0 0.00 0.00 0.00 94 1032.5
20260509102015 53 189 0.0 0.0 0.00 0.00 0.00 94 1032.3
20260509101512 53 186 0.0 0.0 0.00 0.00 0.00 94 1032.6
20260509101009 53 191 0.0 0.0 0.00 0.00 0.00 93 1032.9
20260509100506 53 183 0.0 0.0 0.00 0.00 0.00 93 1032.8
20260509100003 53 182 0.0 0.0 0.00 0.00 0.00 93 1033.0
20260509095459 54 183 0.0 0.0 0.00 0.00 0.00 93 1033.0
20260509094956 54 187 0.0 0.0 0.00 0.00 0.00 93 1033.1
20260509094453 54 185 0.0 0.0 0.00 0.00 0.00 93 1033.1
20260509093950 54 184 0.0 0.0 0.00 0.00 0.00 93 1033.0
20260509093448 54 189 0.0 0.0 0.00 0.00 0.00 92 1033.1
20260509092946 54 185 0.0 0.0 0.00 0.00 0.00 92 1032.9
20260509092443 54 181 0.0 0.0 0.00 0.00 0.00 92 1033.1
20260509091942 54 180 0.0 0.0 0.00 0.00 0.00 92 1033.3
20260509091438 54 177 0.0 0.0 0.00 0.00 0.00 92 1033.0
20260509090935 54 187 0.0 0.0 0.00 0.00 0.00 91 1033.3
20260509090433 54 189 0.0 0.0 0.00 0.00 0.00 91 1032.9
20260509085931 55 185 0.0 0.0 0.00 0.00 0.00 91 1032.9
20260509085427 55 180 0.0 1.0 0.00 0.00 0.00 91 1032.9
20260509084923 55 181 0.0 0.0 0.00 0.00 0.00 91 1033.1
20260509084420 55 188 0.0 0.0 0.00 0.00 0.00 91 1033.3
20260509083918 55 189 0.0 0.0 0.00 0.00 0.00 91 1033.4
20260509083415 55 186 0.0 0.0 0.00 0.00 0.00 90 1033.4
20260509082911 54 187 0.0 0.0 0.00 0.00 0.00 90 1033.3
20260509082409 54 182 0.0 0.0 0.00 0.00 0.00 90 1033.3
20260509081905 55 178 0.0 0.0 0.00 0.00 0.00 89 1033.3
20260509081403 55 183 0.0 0.0 0.00 0.00 0.00 89 1033.3
20260509080900 54 183 0.0 0.0 0.00 0.00 0.00 89 1033.4
20260509080358 54 182 0.0 0.0 0.00 0.00 0.00 88 1033.0
20260509075856 55 180 0.0 0.0 0.00 0.00 0.00 88 1033.0
20260509075353 55 187 0.0 0.0 0.00 0.00 0.00 87 1033.0
20260509074850 55 188 0.0 0.0 0.00 0.00 0.00 86 1033.0
20260509074348 55 188 0.0 0.0 0.00 0.00 0.00 86 1033.4
20260509073843 55 190 0.0 0.0 0.00 0.00 0.00 86 1033.3
20260509073340 56 188 0.0 0.0 0.00 0.00 0.00 86 1033.1
20260509072837 56 188 0.0 0.0 0.00 0.00 0.00 85 1032.8
20260509072333 56 188 0.0 0.0 0.00 0.00 0.00 85 1033.1
20260509071830 56 188 0.0 0.0 0.00 0.00 0.00 84 1032.8
20260509071327 56 183 0.0 0.0 0.00 0.00 0.00 84 1033.0
20260509070824 56 185 0.0 0.0 0.00 0.00 0.00 84 1033.0
20260509070321 57 186 0.0 0.0 0.00 0.00 0.00 83 1033.0
20260509065817 57 187 0.0 0.0 0.00 0.00 0.00 83 1033.0
20260509065314 57 187 0.0 0.0 0.00 0.00 0.00 83 1033.1
20260509064809 57 184 0.0 0.0 0.00 0.00 0.00 83 1033.1
20260509064307 57 182 0.0 1.0 0.00 0.00 0.00 83 1033.4
20260509063805 57 190 0.0 0.0 0.00 0.00 0.00 83 1033.4
20260509063301 57 185 0.0 0.0 0.00 0.00 0.00 83 1033.5
20260509062758 57 194 0.0 0.0 0.00 0.00 0.00 82 1033.4
20260509062255 56 190 0.0 0.0 0.00 0.00 0.00 82 1033.8
20260509061752 57 188 0.0 0.0 0.00 0.00 0.00 81 1033.7
20260509061250 57 188 0.0 2.0 0.00 0.00 0.00 81 1033.8
20260509060747 57 189 0.0 0.0 0.00 0.00 0.00 80 1033.8
20260509060243 57 189 0.0 0.0 0.00 0.00 0.00 79 1033.7
20260509055739 58 187 0.0 0.0 0.00 0.00 0.00 79 1033.9
20260509055235 58 171 0.0 2.0 0.00 0.00 0.00 78 1034.0
20260509054732 58 190 0.0 0.0 0.00 0.00 0.00 78 1034.0
20260509054229 58 190 0.0 2.0 0.00 0.00 0.00 78 1033.9
20260509053727 59 222 1.0 2.0 0.00 0.00 0.00 77 1034.0
20260509053224 59 167 1.0 2.0 0.00 0.00 0.00 77 1033.9
20260509052722 59 182 0.0 2.0 0.00 0.00 0.00 76 1034.0
20260509052219 59 168 1.0 1.0 0.00 0.00 0.00 76 1033.9
20260509051717 59 175 0.0 2.0 0.00 0.00 0.00 75 1034.1
20260509051215 59 142 2.0 2.0 0.00 0.00 0.00 74 1033.9
20260509050711 59 184 0.0 2.0 0.00 0.00 0.00 74 1034.0
20260509050208 59 192 2.0 3.0 0.00 0.00 0.00 74 1034.1
20260509045705 60 195 1.0 2.0 0.00 0.00 0.00 73 1033.8
20260509045202 60 194 1.0 1.0 0.00 0.00 0.00 72 1034.0
20260509044659 60 187 0.0 1.0 0.00 0.00 0.00 72 1033.8
20260509044156 60 177 1.0 2.0 0.00 0.00 0.00 71 1033.9
20260509043653 60 184 0.0 1.0 0.00 0.00 0.00 71 1033.8
20260509043148 60 192 1.0 2.0 0.00 0.00 0.00 70 1033.8
20260509042645 61 145 1.0 3.0 0.00 0.00 0.00 70 1033.7
20260509042141 61 184 1.0 3.0 0.00 0.00 0.00 70 1033.8
20260509041638 60 188 0.0 3.0 0.00 0.00 0.00 70 1033.7
20260509041136 61 201 1.0 3.0 0.00 0.00 0.00 69 1033.8
20260509040634 61 200 0.0 2.0 0.00 0.00 0.00 69 1034.0
20260509040131 61 181 0.0 2.0 0.00 0.00 0.00 69 1033.9
20260509035627 61 183 0.0 2.0 0.00 0.00 0.00 69 1033.8
20260509035124 61 181 1.0 1.0 0.00 0.00 0.00 68 1034.0
20260509034622 61 187 0.0 2.0 0.00 0.00 0.00 68 1034.1
20260509034119 61 176 0.0 1.0 0.00 0.00 0.00 68 1034.1
20260509033615 61 186 0.0 0.0 0.00 0.00 0.00 68 1034.2